weather.gov     
National Weather Service

Regional Weather Roundup
NWS Homepage
This page is being discontinued on March 12, 2014.
The same data is available at this site. Please update your bookmarks.
Thank you, and we apologize for the inconvenience.
Please send an email to SR-SRH.Webmaster@noaa.gov with any concerns.


Current Version
Previous Version:    01  02  03  04  05  06  07  08  09  10  11  12  13  14  15  16  17  18  19  20  21  22  23  24  25  26  27  28  29  30  
   31  32  33  34  35  36  37  38  39  40  41  42  43  44  45  46  47  48  49  50  51  52  53  
[Printable]
374
ASUS41 KGYX 300410
RWRGYX
WEATHER ROUNDUP FOR MAINE AND NEW HAMPSHIRE
NATIONAL WEATHER SERVICE GRAY ME
1100 PM EST THU JAN 29 2015

MEZ002-005-006-010-012-015-018-020-021-024-026-027-029-300500-
MAINE

CITY           SKY/WX    TMP DP  RH WIND       PRES   REMARKS
PORTLAND       MOCLDY    22  14  71 CALM      30.08F
SANFORD        MOCLDY    19   9  63 W3        30.07S
BAR HARBOR     PTCLDY    10   9  92 N3        30.10F
WISCASSET      MOCLDY    12   9  87 CALM      30.09F
ROCKLAND       PTCLDY    10   9  92 CALM      30.08F
FRYEBURG       CLOUDY    25  15  66 S3        30.04F
LEWISTONAUBURN MOCLDY    14   7  73 CALM      30.05S
AUGUSTA        MOCLDY    20   6  55 CALM      30.06F
WATERVILLE     MOCLDY    16   1  53 CALM      30.04S
BANGOR         PTCLDY     4   1  88 CALM      30.09F
GREENVILLE       N/A     18   1  47 VRB3      29.94F
MILLINOCKET    PTCLDY     3   0  87 CALM      30.07F FOG
HOULTON        CLEAR      1  -4  79 CALM      30.05F
PRESQUE ISLE   PTCLDY    10  -2  56 S3        30.03F
FRENCHVILLE    PTCLDY    13   6  74 SE6       29.98F
CARIBOU        PTCLDY    10   5  80 SE7       30.02F
$$

NHZ002-005-008-009-011-012-014-300500-
NEW HAMPSHIRE

CITY           SKY/WX    TMP DP  RH WIND       PRES   REMARKS
PORTSMOUTH     CLOUDY    24  19  81 S3        30.07R
ROCHESTER      CLOUDY    24  18  77 CALM      30.06F
NASHUA         MOCLDY    28  20  72 CALM      30.07F
MANCHESTER     CLOUDY    29  20  69 S5        30.05S
CONCORD        CLOUDY    28  19  69 S3        30.06S
LACONIA        CLOUDY    25  16  68 CALM      30.02S
PLYMOUTH       CLOUDY    26  20  80 E3        30.03S
BERLIN         CLOUDY    27   4  37 SE12      29.92F WCI  17
WHITEFIELD     CLOUDY    31   8  38 VRB3      29.91F
JAFFREY        CLOUDY    26  13  57 S7        30.00F
KEENE          CLOUDY    28  16  59 S9        30.02R
LEBANON        CLOUDY    29   8  41 VRB5      29.97F
MT WASHINGTON  FLURRIES   9  -4  56 S61G69      N/A  WCI -21
$$

VTZ005-007-008-300500-
VERMONT

CITY           SKY/WX    TMP DP  RH WIND       PRES   REMARKS
ST JOHNSBURY     N/A     28  16  60 MISG      29.91F
MONTPELIER     CLOUDY    26   8  46 S15G25    29.91F WCI  14
BURLINGTON     FLURRIES  30  15  53 S17G26    29.87F WCI  18
$$

MAZ007-012-024-CTZ003-RIZ002-NYZ038-NYZ072-300500-
SOUTHERN NEW ENGLAND AND NY

CITY           SKY/WX    TMP DP  RH WIND       PRES   REMARKS
BOSTON         CLOUDY    28  21  75 SE6       30.08F
WORCESTER      CLOUDY    25  19  78 S7        30.00F
NANTUCKET      CLOUDY    30  26  85 CALM      30.11F
PROVIDENCE     CLOUDY    28  21  75 CALM      30.07F
HARTFORD       FLURRIES  29  22  75 SE3       30.03F
ALBANY         LGT SNOW  28  20  71 S13G26    29.94F WCI  17
NEW YORK CITY  CLOUDY    34  26  72 SW7       30.03F
$$

ANZ081-ANZ082-ANZ150-NHZ014-MEZ023>029-300500-
COASTAL MARINE OBSERVATIONS

STATION/POSITION TIME  TEMP    WIND        PRES    WAVE
                       AIR SEA DIR/SP/G            HT/PER
                 (UTC) (F)     (DEG/KT/KT) (MB)    (FT/S)
MOUNT DESERT ROC 0400   35                 1018.1F
MATINICUS ROCK   0400          150/ 12/ 14 1018.4F
PORTLAND WX BUOY 0350   31 40  320/  4/  6 1018.1F   2/11
WELLS            0300   23 34  360/  2/  3 1017.6F
ISLE OF SHOALS   0400   32     220/ 17/ 18 1018.2R
JEFFREYS LEDGE   0321      44                N/A     3/11
CASHES LEDGE BUO 0350   36 44  170/ 10/ 12 1019.0F   3/10
$$

.............KEY..............
   WCI - WIND CHILL
   TC  - TEMPERATURE IN CELSIUS
   VSB - VISIBILITY IN MILES
   HX  - HEAT INDEX
   FAIR- INDICATES FEW OR NO CLOUDS BELOW 12,000 FT, WITH NO
         SIGNIFICANT WEATHER AND/OR OBSTRUCTIONS TO VISIBILITY.






U.S. Dept. of Commerce
NOAA National Weather Service
1325 East West Highway
Silver Spring, MD 20910
E-mail: w-nws.webmaster@noaa.gov
Page last modified: May 16, 2007
NATIONAL WEATHER SERVICE: for Safety, for Work, for Fun - FOR LIFE